Flag for Germany Weather past 2 weeks in Stralsund, Mecklenburg-Western Pomerania, Germany

Now
71 °F

Thundershowers. Overcast.


Feels Like: 71 °F
Forecast: 60 / 71 °F
Wind: 9 mph from Northwest

Location: Greifswald

Current Time: Aug 4, 2015 at 10:39:48 PM

Latest Report: Aug 4, 2015 at 10:00 PM


Visibility: 7 mi

Pressure: 29.88 "Hg

Humidity: 81%

Dew point: 65 °F

Location of StralsundLocation

Historic Weather in Stralsund — Graph

°F

Stralsund temperature yesterday

Maximum temperature yesterday: 74 °F (at 6:00 PM)
Minimum temperature yesterday: 51 °F (at 6:00 AM)
Average temperature yesterday: 64 °F

Past Weeks' High & Low Weather Summary

 TemperatureHumidityPressure
High91 °F (Aug 4, 5:00 PM)100% (Aug 2, 7:00 AM)30.16 "Hg (Aug 2, 7:00 AM)
Low46 °F (Aug 1, 4:00 AM)31% (Aug 2, 3:00 PM)29.44 "Hg (Jul 25, 6:00 PM)
Average63 °F72%29.85 "Hg
* Reported Jul 20 9:00 PM — Aug 4 9:00 PM, Stralsund, Weather by CustomWeather, © 2015

Note: Actual official high and low records may vary slightly from our data, if they occured in-between our weather recording intervals... More about our weather records

Advertising

Stralsund weather history for previous 24 hours

 ConditionsComfort  
Time TempWeatherWind HumidityBarometerVisibility
9:00 PM
Tue, Aug 4
77 °FOvercast.3 mph64%29.81 "Hg12 mi
8:00 PM82 °FPartly sunny.3 mph49%29.81 "Hg12 mi
7:00 PM86 °FPassing clouds.5 mph44%29.82 "Hg14 mi
6:00 PM91 °FScattered clouds.3 mph34%29.83 "Hg16 mi
5:00 PM91 °FPartly sunny.3 mph31%29.85 "Hg16 mi
4:00 PM89 °FPartly sunny.3 mph33%29.87 "Hg14 mi
3:00 PM87 °FPartly sunny.3 mph38%29.88 "Hg14 mi
2:00 PM88 °FPassing clouds.6 mph36%29.89 "Hg15 mi
1:00 PM87 °FPassing clouds.6 mph36%29.91 "Hg12 mi
12:00 PM86 °FPassing clouds.5 mph37%29.93 "Hg12 mi
10:00 AM79 °FPassing clouds.3 mph52%29.97 "Hg12 mi
9:00 AM73 °FPassing clouds.3 mph59%29.98 "Hg12 mi
8:00 AM67 °FPassing clouds.1 mph78%29.99 "Hg7 mi
7:00 AM60 °FPassing clouds.1 mph94%30.00 "Hg6 mi
6:00 AM58 °FPassing clouds.1 mph95%30.01 "Hg5 mi
4:00 AM59 °FPassing clouds.1 mph94%30.03 "Hg8 mi
3:00 AM60 °FPassing clouds.1 mph91%30.04 "Hg10 mi
2:00 AM62 °FPassing clouds.2 mph85%30.06 "Hg12 mi
1:00 AM62 °FClear.2 mph82%30.07 "Hg16 mi
10:00 PM
Mon, Aug 3
64 °FPassing clouds.5 mph81%30.09 "Hg12 mi
Weather by CustomWeather, © 2015

See weather overviewHow to use our weather pages